Printer-friendly version

IAU Minor Planet Center

Minor Planet Center

MPEC 2006-J19 : 2006 JO

The following Minor Planet Electronic Circular may be linked-to from your own Web pages, but must not otherwise be redistributed electronically.


Read MPEC 2006-J18 Read MPEC 2006-J20


M.P.E.C. 2006-J19                                Issued 2006 May 3, 15:58 UT

     The Minor Planet Electronic Circulars contain information on unusual
         minor planets and routine data on comets.  They are published
   on behalf of Commission 20 of the International Astronomical Union by the
          Minor Planet Center, Smithsonian Astrophysical Observatory,
                          Cambridge, MA 02138, U.S.A.

                  Supported in part by the Brinson Foundation
                  Supported in part by the TABASGO Foundation
             Prepared using the Tamkin Foundation Computer Network

                              MPC@CFA.HARVARD.EDU
          URL http://cfa-www.harvard.edu/iau/mpc.html  ISSN 1523-6714

                                    2006 JO

Observations:
     K06J00O* C2006 05 02.29126 14 12 53.31 -13 51 02.1          18.9 V EJ019G96
     K06J00O  C2006 05 02.29586 14 12 52.38 -13 52 03.6          18.8 V EJ019G96
     K06J00O  C2006 05 02.30042 14 12 51.40 -13 53 04.3          18.7 V EJ019G96
     K06J00O  C2006 05 02.30485 14 12 50.50 -13 54 03.7          18.8 V EJ019G96
     K06J00O  C2006 05 02.32822 14 12 45.68 -13 59 17.2          18.8 V EJ019G96
     K06J00O  C2006 05 02.32910 14 12 45.50 -13 59 29.0          18.7 V EJ019G96
     K06J00O  C2006 05 02.32998 14 12 45.28 -13 59 41.1          18.7 V EJ019G96
     K06J00O  C2006 05 02.33091 14 12 45.10 -13 59 53.8          18.8 V EJ019G96
     K06J00O  C2006 05 02.35874 14 12 39.38 -14 06 11.3          18.7 V EJ019G96
     K06J00O  C2006 05 02.35904 14 12 39.31 -14 06 15.4          18.8 V EJ019G96
     K06J00O  C2006 05 02.35934 14 12 39.24 -14 06 19.4          18.8 V EJ019G96
     K06J00O  C2006 05 02.35964 14 12 39.16 -14 06 23.5          18.7 V EJ019G96
     K06J00O  C2006 05 02.40815 14 12 29.44 -14 17 29.9          19.0 V EJ019G96
     K06J00O  C2006 05 02.40846 14 12 29.37 -14 17 34.2          18.9 V EJ019G96
     K06J00O  C2006 05 02.40877 14 12 29.30 -14 17 38.5          18.8 V EJ019G96
     K06J00O  C2006 05 02.40907 14 12 29.26 -14 17 42.4          18.8 V EJ019G96
     K06J00O  C2006 05 03.21447 14 10 25.96 -18 08 01.4          18.3 R EJ019854
     K06J00O  C2006 05 03.21755 14 10 25.00 -18 09 07.5          18.3 R EJ019854
     K06J00O  C2006 05 03.22063 14 10 24.02 -18 10 11.9          18.3 R EJ019854
     K06J00O  C2006 05 03.29789 14 09 59.97 -18 37 53.0          18.4 V EJ019G96
     K06J00O  C2006 05 03.29823 14 09 59.83 -18 38 00.4          18.4 V EJ019G96
     K06J00O  C2006 05 03.29854 14 09 59.76 -18 38 07.4          18.2 V EJ019G96
     K06J00O  C2006 05 03.29884 14 09 59.65 -18 38 13.8          18.4 V EJ019G96
     K06J00O  C2006 05 03.41527 14 09 41.32 -19 16 33.7          17.9 R EJ019474
     K06J00O  C2006 05 03.41639 14 09 40.86 -19 17 00.4          17.8 R EJ019474
     K06J00O  C2006 05 03.41752 14 09 40.57 -19 17 26.4          17.7 R EJ019474
     K06J00O  C2006 05 03.41863 14 09 40.19 -19 17 53.3          18.0 R EJ019474

Observer details:
474 Mount John Observatory, Lake Tekapo.  Observer A. C. Gilmore.  0.6-m f/6.4
    reflector + CCD.
854 Sabino Canyon Observatory, Tucson.  Observer J. E. McGaha.  0.36-m f/10.0
    Schmidt-Cassegrain + CCD.
G96 Mt. Lemmon Survey.  Observer E. J. Christensen.  Measurers E. C. Beshore,
    E. J. Christensen, G. J. Garradd, A. R. Gibbs, A. D. Grauer, R. E. Hill,
    R. A. Kowalski, S. M. Larson, R. H. McNaught.  1.5-m reflector + CCD.

Orbital elements:
2006 JO                                                  Earth MOID = 0.0122 AU
Epoch 2006 Mar. 6.0 TT = JDT 2453800.5                  MPC
M 332.25834              (2000.0)            P               Q
n   0.26899439     Peri.  248.05534     +0.32514304     +0.94091934
a   2.3766975      Node    41.30247     -0.80611913     +0.32808516
e   0.6684724      Incl.    8.24204     -0.49442285     +0.08385060
P   3.66           H   25.1           G   0.15           U   7
Residuals in seconds of arc
060502 G96  0.1+  0.1+    060502 G96  0.0   0.2-    060503 854  1.2-  0.5+
060502 G96  0.4+  0.1-    060502 G96  0.1-  0.1-    060503 G96  0.1+  0.2-
060502 G96  0.2-  0.1+    060502 G96  0.4-  0.1-    060503 G96  0.4-  0.2-
060502 G96  0.0   0.0     060502 G96  0.2+  0.3-    060503 G96  0.0   0.4-
060502 G96  0.2+  0.4+    060502 G96  0.1+  0.3-    060503 G96  0.2-  0.2-
060502 G96  0.3+  0.4+    060502 G96  0.1-  0.3-    060503 474  1.1+  0.2+
060502 G96  0.3-  0.2+    060502 G96  0.2+  0.1-    060503 474  0.4-  0.2-
060502 G96  0.1-  0.1+    060503 854  0.3+  0.9+    060503 474  0.5+  0.4+
060502 G96  0.1+  0.2-    060503 854  0.3-  0.2-    060503 474  0.0   0.5-

Ephemeris:
2006 JO                  a,e,i = 2.38, 0.67, 8                   q = 0.7879
Date    TT    R. A. (2000) Decl.     Delta      r     Elong.  Phase     V
2006 04 25    14 18.86   -03 43.8    0.116    1.120   170.4     8.6    21.3
2006 04 27    14 18.13   -04 56.5    0.0954   1.101   171.2     8.0    20.8
2006 04 29    14 17.00   -06 50.1    0.0754   1.082   172.3     7.2    20.2
2006 05 01    14 15.07   -10 06.5    0.0557   1.063   173.6     6.0    19.4
2006 05 03    14 11.04   -16 54.2    0.0365   1.044   173.0     6.8    18.5
2006 05 05    13 56.75   -37 09.1    0.0190   1.026   156.2    23.4    17.7
2006 05 07    03 38.70   -67 51.5    0.0133   1.008    84.9    94.3    19.1
2006 05 09    02 37.17   -28 10.1    0.0279   0.990    45.8   133.0    23.3

Kyle E. Smalley              (C) Copyright 2006 MPC           M.P.E.C. 2006-J19

Read MPEC 2006-J18 Read MPEC 2006-J20


Our Web policy. Index to the CBAT/MPC/ICQ pages.


Valid HTML 4.01!